DW6033 Weather Reports


time (UTC)temp
C
wind
direction
speed
KPH
gust
KPH
rain 1hr
cm
rain 24hr
cm
rain mn
cm
humidity
%
barometer
mb
20260507134537 11 122 4.8 11.3 0.00 2.16 0.43 74 1006.2
20260507133035 12 294 6.4 16.1 0.00 2.16 0.43 70 1006.2
20260507131534 11 309 6.4 19.3 0.00 2.16 0.43 72 1006.5
20260507130052 11 311 12.9 20.9 0.00 2.16 0.43 74 1006.3
20260507124530 10 332 4.8 16.1 0.00 2.16 0.43 79 1006.3
20260507123029 10 270 12.9 19.3 0.00 2.16 0.43 80 1006.4
20260507121528 10 291 12.9 17.7 0.00 2.16 0.43 82 1005.9
20260507120034 10 290 11.3 14.5 0.00 2.16 0.43 84 1006.4
20260507114524 9 293 12.9 19.3 0.00 2.16 0.43 86 1006.4
20260507113023 9 295 12.9 16.1 0.00 2.16 0.43 87 1006.8
20260507111519 9 291 8.0 12.9 0.00 2.16 0.43 86 1007.5
20260507110024 9 253 4.8 11.3 0.00 2.16 0.43 85 1007.6
20260507104517 8 249 3.2 9.7 0.00 2.16 0.43 86 1007.1
20260507103015 8 259 4.8 8.0 0.00 2.16 0.43 86 1007.0
20260507101512 8 234 0.0 6.4 0.00 2.16 0.43 86 1006.1
20260507100010 8 253 4.8 8.0 0.00 2.16 0.43 86 1006.3
20260507094509 9 279 6.4 9.7 0.00 2.16 0.43 86 1006.3
20260507093008 9 47 6.4 9.7 0.00 2.16 0.43 85 1006.0
20260507091508 9 325 1.6 11.3 0.00 2.16 0.43 85 1006.1
20260507090006 9 267 4.8 14.5 0.00 2.16 0.43 85 1006.2
20260507084504 9 250 8.0 16.1 0.00 2.16 0.43 85 1006.1
20260507083003 10 311 8.0 17.7 0.00 2.16 0.43 88 1006.0
20260507081605 10 234 4.8 20.9 0.00 2.16 0.43 90 1005.7
20260507080058 10 315 9.7 17.7 0.00 2.16 0.43 91 1005.5
20260507074606 10 306 4.8 11.3 0.00 2.16 0.43 92 1005.6
20260507073100 10 254 4.8 16.1 0.03 2.16 0.43 91 1005.4
20260507071551 10 277 4.8 11.3 0.03 2.16 0.43 92 1005.1
20260507070051 10 323 0.0 6.4 0.03 2.16 0.43 91 1005.0
20260507064549 10 259 4.8 16.1 0.03 2.16 0.43 91 1005.3
20260507063049 10 46 6.4 16.1 0.03 2.13 0.41 90 1004.9
20260507061546 11 347 1.6 25.7 0.20 2.13 0.41 91 1005.0
20260507060043 11 311 4.8 29.0 0.36 2.13 0.41 95 1004.8
20260507054543 11 298 9.7 20.9 0.38 2.13 0.41 95 1004.5
20260507053039 11 280 16.1 33.8 0.36 2.11 0.38 97 1004.2
20260507051537 11 282 11.3 16.1 0.15 1.91 0.18 97 1005.1
20260507050038 11 244 3.2 6.4 0.05 1.78 0.05 97 1004.3
20260507044538 11 270 4.8 17.7 0.03 1.75 0.03 97 1004.1
20260507043031 11 283 9.7 19.3 0.03 1.75 0.03 97 1004.4
20260507041537 11 238 4.8 12.9 0.00 1.73 0.00 97 1004.1
20260507040028 11 263 9.7 24.1 0.00 1.73 0.00 97 1004.2
20260507034526 11 159 9.7 19.3 0.00 1.73 1.73 97 1004.5
20260507033028 11 290 9.7 25.7 0.00 1.73 1.73 96 1004.5
20260507031527 11 262 6.4 20.9 0.00 1.73 1.73 97 1004.6
20260507030022 11 215 12.9 20.9 0.00 1.73 1.73 97 1004.8
20260507024520 11 196 8.0 20.9 0.03 1.73 1.73 96 1005.0
20260507023018 11 177 1.6 12.9 0.05 1.73 1.73 96 1005.4
20260507021516 11 240 6.4 22.5 0.08 1.73 1.73 96 1005.6
20260507020013 11 229 9.7 27.4 0.15 1.73 1.73 96 1005.8
20260507014516 11 211 12.9 25.7 0.18 1.70 1.70 96 1006.0
20260507013019 11 202 3.2 11.3 0.33 1.68 1.68 96 1006.0
20260507011516 11 201 4.8 22.5 0.33 1.63 1.63 96 1006.2
20260507010008 11 215 11.3 17.7 0.33 1.57 1.57 95 1006.4
20260507004515 11 174 8.0 22.5 0.33 1.50 1.50 95 1006.5
20260507003005 11 178 16.1 27.4 0.25 1.35 1.35 95 1006.6
20260507001504 11 238 4.8 25.7 0.41 1.30 1.30 95 1006.8
20260507000004 11 210 14.5 29.0 0.46 1.22 1.22 94 1006.9
20260506234502 11 148 16.1 35.4 0.56 1.17 1.17 95 1007.0
20260506233101 11 171 9.7 22.5 0.56 1.09 1.09 95 1006.9
20260506231559 12 197 12.9 29.0 0.46 0.91 0.91 94 1007.1
20260506230059 12 173 14.5 27.4 0.41 0.76 0.76 94 1007.2
20260506224554 12 152 9.7 24.1 0.30 0.61 0.61 93 1007.2
20260506223056 12 159 11.3 32.2 0.28 0.53 0.53 93 1007.5
20260506221550 12 290 9.7 24.1 0.25 0.46 0.46 93 1007.7
20260506220049 12 191 4.8 24.1 0.20 0.36 0.36 93 1007.7
20260506214547 12 263 8.0 37.0 0.18 0.30 0.30 92 1008.0
20260506213102 12 201 11.3 22.5 0.20 0.25 0.25 92 1008.0
20260506211602 13 234 8.0 17.7 0.18 0.20 0.20 91 1008.2
20260506210044 13 197 6.4 17.7 0.13 0.15 0.15 91 1008.1
20260506204548 13 186 6.4 20.9 0.10 0.13 0.13 89 1008.3
20260506203046 13 268 12.9 33.8 0.03 0.05 0.05 87 1008.4
20260506201554 14 267 12.9 29.0 0.00 0.03 0.03 87 1008.1
20260506200039 14 240 14.5 30.6 0.00 0.03 0.03 85 1008.3
20260506194547 13 181 8.0 14.5 0.00 0.03 0.03 85 1008.0
20260506193040 13 146 6.4 29.0 0.00 0.03 0.03 83 1008.1
20260506191544 13 193 8.0 25.7 0.00 0.03 0.03 84 1008.5
20260506190037 13 198 12.9 22.5 0.00 0.03 0.03 84 1008.4
20260506184534 13 258 4.8 25.7 0.00 0.03 0.03 83 1008.7
20260506183041 13 159 9.7 22.5 0.00 0.03 0.03 84 1008.8
20260506181532 13 89 8.0 12.9 0.00 0.03 0.03 83 1008.9
20260506180035 13 267 12.9 30.6 0.00 0.03 0.03 84 1009.0
20260506174530 13 165 6.4 19.3 0.00 0.03 0.03 84 1009.2
20260506173029 14 231 14.5 35.4 0.00 0.03 0.03 82 1009.5
20260506171531 15 232 19.3 33.8 0.00 0.03 0.03 82 1009.7
20260506170033 15 193 11.3 27.4 0.00 0.03 0.03 82 1009.9
20260506164528 15 226 14.5 35.4 0.00 0.03 0.03 82 1010.3
20260506163027 15 196 20.9 40.2 0.00 0.03 0.03 83 1010.3
20260506161527 15 197 19.3 41.8 0.00 0.03 0.03 82 1010.6
20260506160028 15 238 14.5 33.8 0.00 0.03 0.03 82 1010.8
20260506154524 15 257 14.5 32.2 0.00 0.03 0.03 83 1010.6
20260506153021 13 202 6.4 16.1 0.00 0.03 0.03 85 1010.6
20260506151520 13 259 11.3 32.2 0.00 0.03 0.03 85 1010.2
20260506150020 13 231 17.7 32.2 0.00 0.03 0.03 86 1010.4
20260506144519 13 194 17.7 27.4 0.00 0.03 0.03 87 1011.0
20260506143027 13 176 6.4 19.3 0.03 0.03 0.03 87 1010.9
20260506141516 13 279 12.9 24.1 0.03 0.03 0.03 88 1011.2
20260506140016 13 257 19.3 33.8 0.03 0.03 0.03 88 1011.2